Japanese version Home page |
Updated on June 28, 2000 |
Profile
|
Orbital ElementsImproved parabolic orbital elements by K. Muraoka, from 20 observations 2000 May 4 to 9, m.e. = +/- 0".44. T = 2000 May 12.776 TT Peri. = 147.630 Node = 28.225 (2000.0) Incl. = 99.031 q = 2.55276 AU e = 1.0
|
Finding Charts
|
Magnitudes Graphm1 = 14.0 + 5 log d + 10.0 log r
|
The orbital elements are calculated by Kenji Muraoka.
|